Tinley Park, Illinois, United States (60477)
Lat: 41.57N, Lon: 87.78W
Wx Zone: ILZ014
Local Info
Past Weather Observations for Today

NOTE: This archive is for the closest National Weather Service station to Tinley Park. Information may differ from the station used for current weather conditions.

Click here for Long-term Archive

Time Weather Temperature Dewpoint Humidity Pressure Winds Precip Visibility
11:35
Overcast
48°F / 9°C 39°F / 4°C 71% 30.12 in
(1020 mb)
NE 9.2 mph
(NE 15 kph)
- 10SM
11:15
Overcast
48°F / 9°C 39°F / 4°C 71% 30.12 in
(1020 mb)
NE 10.4 mph
(NE 17 kph)
- 10SM
10:55
Overcast
48°F / 9°C 41°F / 5°C 76% 30.09 in
(1019 mb)
NNE 12.7 mph
(NNE 20 kph)
- 10SM
10:35
Overcast
48°F / 9°C 39°F / 4°C 71% 30.09 in
(1019 mb)
NNE 12.7 mph
(NNE 20 kph)
- 10SM
10:15
Overcast
48°F / 9°C 41°F / 5°C 76% 30.09 in
(1019 mb)
N 10.4 mph
(N 17 kph)
- 10SM
09:55
Overcast
48°F / 9°C 41°F / 5°C 76% 30.09 in
(1019 mb)
N 10.4 mph
(N 17 kph)
- 10SM
09:35
Overcast
46°F / 8°C 39°F / 4°C 76% 30.09 in
(1019 mb)
N 10.4 mph
(N 17 kph)
- 10SM
09:15
Overcast
45°F / 7°C 39°F / 4°C 81% 30.12 in
(1020 mb)
NNE 8.1 mph
(NNE 13 kph)
- 10SM
08:55
Overcast
43°F / 6°C 41°F / 5°C 93% 30.12 in
(1020 mb)
NNE 9.2 mph
(NNE 15 kph)
- 7SM
08:35
Overcast
Fog And Mist
43°F / 6°C 41°F / 5°C 93% 30.12 in
(1020 mb)
N 6.9 mph
(N 11 kph)
- 5SM
08:15
Overcast
Fog And Mist
43°F / 6°C 41°F / 5°C 93% 30.06 in
(1018 mb)
N 8.1 mph
(N 13 kph)
- 4SM
07:55
Overcast
Fog And Mist
43°F / 6°C 41°F / 5°C 93% 30.06 in
(1018 mb)
NE 12.7 mph
(NE 20 kph)
- 4SM
07:35
Overcast
Fog And Mist
43°F / 6°C 41°F / 5°C 93% 30.06 in
(1018 mb)
NNE 8.1 mph
(NNE 13 kph)
- 4SM
07:15
Overcast
Fog And Mist
45°F / 7°C 43°F / 6°C 93% 30.06 in
(1018 mb)
N 5.8 mph
(N 9 kph)
- 3SM
06:55
Overcast
Fog And Mist
45°F / 7°C 43°F / 6°C 93% 30.06 in
(1018 mb)
N 5.8 mph
(N 9 kph)
- 5SM
06:35
Overcast
Fog And Mist
45°F / 7°C 43°F / 6°C 93% 30.06 in
(1018 mb)
NNW 3.5 mph
(NNW 6 kph)
- 3SM
06:15
Overcast
Fog And Mist
45°F / 7°C 43°F / 6°C 93% 30.09 in
(1019 mb)
NW 3.5 mph
(NW 6 kph)
- 3SM
05:55
Overcast
Fog And Mist
45°F / 7°C 43°F / 6°C 93% 30.09 in
(1019 mb)
WNW 4.6 mph
(WNW 7 kph)
- 3SM
05:35
Overcast
Fog And Mist
45°F / 7°C 43°F / 6°C 93% 30.09 in
(1019 mb)
NW 6.9 mph
(NW 11 kph)
- 3SM
05:15
Overcast
Fog And Mist
45°F / 7°C 43°F / 6°C 93% 30.06 in
(1018 mb)
NW 4.6 mph
(NW 7 kph)
- 5SM
04:55
Overcast
Fog And Mist
45°F / 7°C 43°F / 6°C 93% 30.04 in
(1017 mb)
Calm - 4SM
04:35
Overcast
Fog And Mist
45°F / 7°C 43°F / 6°C 93% 30.04 in
(1017 mb)
N 3.5 mph
(N 6 kph)
- 3SM
04:15
Overcast
Fog And Mist
45°F / 7°C 43°F / 6°C 93% 30.04 in
(1017 mb)
N 3.5 mph
(N 6 kph)
- 3SM
03:55
Overcast
Fog And Mist
45°F / 7°C 43°F / 6°C 93% 30.04 in
(1017 mb)
N 4.6 mph
(N 7 kph)
- 3SM
03:35
Overcast
Fog And Mist
45°F / 7°C 43°F / 6°C 93% 30.04 in
(1017 mb)
N 4.6 mph
(N 7 kph)
- 3SM
03:15
Overcast
Fog And Mist
45°F / 7°C 43°F / 6°C 93% 30.01 in
(1016 mb)
N 3.5 mph
(N 6 kph)
- 3SM
02:55
Overcast
Fog And Mist
45°F / 7°C 43°F / 6°C 93% 30.01 in
(1016 mb)
N 4.6 mph
(N 7 kph)
- 3SM
02:40
Overcast
Fog And Mist
45°F / 7°C 45°F / 7°C 100% 30.01 in
(1016 mb)
NNW 4.6 mph
(NNW 7 kph)
- 2 1/2SM
02:15
Overcast
Fog And Mist
45°F / 7°C 43°F / 6°C 93% 30.01 in
(1016 mb)
NW 5.8 mph
(NW 9 kph)
- 3SM
01:55
Overcast
Fog And Mist
45°F / 7°C 43°F / 6°C 93% 30.01 in
(1016 mb)
NW 3.5 mph
(NW 6 kph)
- 3SM
01:35
Overcast
Fog And Mist
45°F / 7°C 43°F / 6°C 93% 30.01 in
(1016 mb)
WNW 3.5 mph
(WNW 6 kph)
- 3SM
01:15
Overcast
Drizzle
45°F / 7°C 43°F / 6°C 93% 30.01 in
(1016 mb)
NW 3.5 mph
(NW 6 kph)
- 3SM
00:55
Overcast
Drizzle
45°F / 7°C 43°F / 6°C 93% 30.01 in
(1016 mb)
NNW 5.8 mph
(NNW 9 kph)
- 4SM
00:35
Overcast
Rain
46°F / 8°C 43°F / 6°C 87% 30.01 in
(1016 mb)
Calm - 4SM
00:15
Overcast
Fog And Mist
46°F / 8°C 43°F / 6°C 87% 30.01 in
(1016 mb)
NNW 4.6 mph
(NNW 7 kph)
- 5SM
Time Weather Temperature Dewpoint Humidity Pressure Winds Precip Visibility


Weather for websites

WeatherForYou.com, LLC is not responsible for any damages or problems caused by this service. Current weather conditions are obtained from the closest station including government and personal stations which may have varying degrees of accuracy. Weather forecasts are derived from the NOAA NDFD. Like all things, this site belongs to Jesus Christ... He just trusts us to maintain it. If you have any questions or comments email webmaster@weatherforyou.com

Copyright © 2016, WeatherForYou.com LLC. All rights reserved.